Regional Weather Roundup
Issued by NWS

Home | Current Version | Previous Version | Graphics & Text | Print | Product List | Glossary On
Versions: 1 2 3 4 5 6 7 8 9 10 11 12 13 14 15 16 17 18 19 20 21 22 23 24 25 26 27 28 29 30 31 32 33 34 35 36 37 38 39 40 41 42 43 44 45 46 47 48 49 50
000
ASUS43 KDMX 050107
RWRIA

WEATHER ROUNDUP FOR IOWA
NATIONAL WEATHER SERVICE DES MOINES IA
800 PM CDT MON MAY 04 2015

NOTE: "FAIR" INDICATES FEW OR NO CLOUDS BELOW 12,000 FEET WITH NO
SIGNIFICANT WEATHER AND/OR OBSTRUCTIONS TO VISIBILITY.

* - THESE STATIONS ARE NOT NWS STATIONS...THUS NOT UNDER NWS
QUALITY CONTROL.  THEY ALSO DO NOT REPORT WEATHER SUCH
AS PRECIPITATION OR FOG.

IAZ001>003-012>014-020>022-031>034-043>046-050200-
   NORTHWEST IOWA

CITY           SKY/WX    TMP DP  RH WIND       PRES   REMARKS
CARROLL *      CLOUDY    55  54  94 NE9       30.11F FOG
CHEROKEE *     CLOUDY    61  46  59 E8        30.11F
DENISON *      LGT RAIN  55  55 100 E13       30.08F
LE MARS *      PTCLDY    63  45  51 SE8G15    30.11F
ORANGE CITY *  CLEAR     64  34  32 E8        30.11S
SHELDON *      CLEAR     64  41  42 E12       30.11S
SIOUX CITY     CLOUDY    60  48  64 SE13      30.10S
SPENCER        CLOUDY    64  39  39 E9        30.13S
STORM LAKE *   CLEAR     57  48  72 SE12      30.13S
$$

IAZ055>058-069>071-079>083-090>094-050200-
   SOUTHWEST IOWA

CITY           SKY/WX    TMP DP  RH WIND       PRES   REMARKS
ATLANTIC *     CLOUDY    61  59  94 NE13      30.07S
AUDUBON *      PTCLDY    57  54  88 NE14G20   30.09F
CLARINDA *     LGT RAIN  64  64 100 VRB7      30.05F
COUNCIL BLFS * CLOUDY    61  61 100 NE14      30.06S
CRESTON *      LGT RAIN  63  63 100 NE10      30.07S
HARLAN  *      DRIZZLE   59  59 100 NE14      30.10F
LAMONI         LGT RAIN  67  63  87 NE10      30.06R
RED OAK *      MOCLDY    64  63  94 NE8       30.04F FOG
SHENANDOAH *   LGT RAIN  64  64 100 NE10      30.03S
$$

IAZ047>049-059>061-072>074-084-050200-
   CENTRAL IOWA

CITY           SKY/WX    TMP DP  RH WIND       PRES   REMARKS
AMES           CLOUDY    60  55  83 N8        30.11R
ANKENY *       LGT RAIN  63  63 100 NE12G17   30.08S
CHARITON *     MOCLDY    66  63  88 N8        30.06S
DES MOINES     LGT RAIN  66  61  84 NE10      30.08R
GRINNELL*      HVY RAIN  64  63  94 NE13      30.08S
KNOXVILLE *    CLOUDY    66  61  82 NE10      30.05R
MARSHALLTOWN   LGT RAIN  62  60  93 NE9       30.10R
PELLA *        CLOUDY    66  64  94 NE6       30.07S FOG
PERRY *        DRIZZLE   59  54  82 NE12      30.10S
$$

IAZ004>006-015-016-023>025-035-036-050200-
   NORTH CENTRAL IOWA

CITY           SKY/WX    TMP DP  RH WIND       PRES   REMARKS
ALGONA *       CLEAR     64  39  39 E6        30.14R
CLARION *      MOCLDY    63  48  59 E7        30.13R
ESTHERVILLE    CLOUDY    62  36  37 E10       30.13F
FORT DODGE *   CLOUDY    57  52  82 E6        30.14S
MASON CITY     CLOUDY    62  43  49 NE9       30.15S
FOREST CITY *  CLEAR     63  37  39 NE6       30.14S
IOWA FALLS *   RAIN      59  54  82 CALM      30.14R
$$

IAZ007>011-017>019-026>030-037>042-050>054-066-050200-
   NORTHEAST IOWA

CITY           SKY/WX    TMP DP  RH WIND       PRES   REMARKS
CEDAR RAPIDS   CLOUDY    67  63  87 NE8       30.07F
CHARLES CITY * MOCLDY    64  48  55 N6        30.13F
CLINTON *      CLOUDY    68  59  73 E9        30.11S
DECORAH *      MOCLDY    66  43  42 N6        30.12S
DUBUQUE        CLOUDY    68  58  70 NE8       30.10S
MONTICELLO *   CLOUDY    68  63  83 CALM      30.09S
OELWEIN *      MOCLDY    64  55  72 E3        30.12S
WATERLOO       LGT RAIN  60  57  89 E6        30.11S FOG
$$

IAZ064-065-067-068-078-050200-
   EAST CENTRAL IOWA

CITY           SKY/WX    TMP DP  RH WIND       PRES   REMARKS
DAVENPORT      CLOUDY    70  59  68 E12       30.07F
IOWA CITY      CLOUDY    70  62  76 NE10      30.07F
MT. PLEASANT * CLOUDY    66  63  88 E10       30.04S
MUSCATINE *    RAIN      68  64  88 NE8       30.08R
QUAD CITIES    TSTM      68  61  78 E13       30.07S
$$

IAZ062-063-075>077-085>089-095>099-050200-
   SOUTHEAST IOWA

CITY           SKY/WX    TMP DP  RH WIND       PRES   REMARKS
BURLINGTON     CLOUDY    67  62  84 E8        30.04F THUNDER
FAIRFIELD *    MOCLDY    70  63  78 NE10      30.04S
FORT MADISON * CLEAR     66  63  88 E7        30.06R
KEOKUK *       MOCLDY    68  64  88 E9        30.03S
OSKALOOSA *    LGT RAIN  66  63  88 NE8       30.05S
CENTERVILLE *  PTCLDY    70  66  88 N6        30.05S
OTTUMWA        LGT RAIN  69  64  84 NE9       30.04S
WASHINGTON *   CLOUDY    70  70 100 E12       30.05S
$$

ABBREVIATIONS USED IN REMARKS
   TC - TEMPERATURES IN CELSIUS
  WCI - WIND CHILL INDEX
   HX - HEAT INDEX
  VSB - VISIBILITY
$$



USA.gov is the U.S. government's official web portal to all federal, state and local government web resources and services.